Overview Statistics Trail Chart Weather Telemetry Raw packets
 

This is the latest recevied weather packets stored in our database for station/object K5IDL. If no packets are shown the sender has not sent any weather packets the latest 10 day(s).

<< 25 26 27 28 29 30 31 >>
Time Temp. Humidity Pressure Rain* Wind** Luminosity Snow
1788532725 30° C 75% 1016.1 hPa 0 mm - 280 W/m² -
1788532422 28.89° C 78% 1016 hPa 0 mm - 85 W/m² -
1788532118 28.89° C 79% 1016 hPa 0 mm - 187 W/m² -
1788531813 29.44° C 78% 1016.1 hPa 0 mm - 169 W/m² -
1788531508 29.44° C 79% 1016.1 hPa 0 mm - 248 W/m² -
1788531203 28.89° C 81% 1015.8 hPa 0 mm - 63 W/m² -
1788530900 28.89° C 82% 1016 hPa 0 mm - 86 W/m² -
1788530594 28.89° C 82% 1016 hPa 0 mm - 194 W/m² -
1788530293 28.33° C 83% 1015.9 hPa 0 mm - 210 W/m² -
1788529988 27.78° C 85% 1015.9 hPa 0 mm - 147 W/m² -
1788529685 27.22° C 87% 1015.8 hPa 0 mm - 155 W/m² -
1788529384 27.22° C 87% 1015.7 hPa 0 mm - 44 W/m² -
1788529079 27.22° C 86% 1015.8 hPa 0 mm - 69 W/m² -
1788528775 27.22° C 86% 1015.7 hPa 0 mm - 68 W/m² -
1788528474 27.22° C 87% 1015.6 hPa 0 mm - 76 W/m² -
1788528170 27.22° C 86% 1015.6 hPa 0 mm - 51 W/m² -
1788527868 26.67° C 87% 1015.4 hPa 0 mm - 60 W/m² -
1788527565 26.11° C 90% 1015.4 hPa 0 mm - 60 W/m² -
1788527264 26.11° C 89% 1015.5 hPa 0 mm - 39 W/m² -
1788526964 26.11° C 89% 1015.4 hPa 0 mm - 40 W/m² -
1788526660 25.56° C 90% 1015.3 hPa 0 mm - 34 W/m² -
1788526363 25.56° C 90% 1015.3 hPa 0 mm - 27 W/m² -
1788526055 25.56° C 90% 1015.4 hPa 0 mm - 27 W/m² -
1788525751 25.56° C 91% 1015.4 hPa 0 mm - 24 W/m² -
1788525446 25° C 92% 1015.1 hPa 0 mm - 17 W/m² -

* Rain latest hour (hover to see other rain measurements)
** Current wind speed in m/s (hover to see current wind gust speed)